[[{"header":{"parameterUnit":"m.s-1","parameterCategory":1,"la1":30.2991,"la2":30.254,"lo1":-89.0895,"lo2":-89.0444,"dy":0.0017,"dx":0.0017,"nx":28,"ny":28,"refTime":"2025-04-21T03:00:00:Z","depth":0,"parameterNumber":2,"parameterNumberName":"U-component_of_WINDS"},"data":[0,0,0,0,0,0,0,0,0,0,0,0,0,0,0,0,0,0,0,0,0,0,0,0,0,0,0,0,0,0,0,0,0,0,0,0,0,0,0,0,0,0,0,0,0,0,0,0,0,0,0,0,0,0,0,0,0,0,-2.1807,-2.1808,0,-2.1881,-2.1882,-2.1883,-2.1883,-2.1882,-2.1881,-2.188,-2.1957,-2.196,-2.1963,0,0,0,0,0,0,0,0,0,0,0,0,0,-2.1668,-2.1671,-2.1807,-2.1808,-2.1809,-2.1881,-2.1882,-2.1883,-2.1883,-2.1882,-2.1881,-2.188,-2.1956,-2.1959,-2.1963,0,0,0,0,0,0,0,0,0,0,0,0,0,-2.1734,-2.1671,-2.1807,-2.1818,-2.1819,-2.188,-2.1882,-2.1883,-2.1884,-2.1882,-2.1881,-2.1879,-2.1955,-2.1959,-2.1963,-2.2019,0,0,-2.1977,-2.1979,0,0,0,0,0,0,0,0,-2.173,-2.1739,-2.1815,-2.1817,-2.1819,-2.1871,-2.1861,-2.1929,-2.1884,-2.1859,-2.188,-2.1879,-2.193,-2.1936,-2.1953,-2.2022,-2.2026,-2.1977,-2.198,-2.1982,-2.1983,0,0,0,0,0,0,0,-2.1726,-2.1736,-2.1836,-2.1816,-2.1819,-2.182,-2.1827,-2.1874,-2.1902,-2.1861,-2.1862,-2.187,-2.193,-2.1949,-2.1955,-2.2027,-2.1977,-2.1981,-2.1984,-2.1985,-2.2146,-2.2147,0,0,0,0,0,0,-2.1719,-2.1732,-2.1834,-2.1838,-2.177,-2.1823,-2.1832,-2.1856,-2.1901,-2.1907,-2.1871,-2.187,-2.1942,-2.195,-2.1957,-2.2025,-2.1982,-2.1986,-2.1988,-2.2144,-2.2146,-2.2148,0,0,0,0,0,0,-2.1716,-2.1728,-2.1831,-2.1785,-2.1798,-2.1827,-2.1854,-2.1858,-2.1876,-2.1909,-2.1914,-2.1885,-2.1941,-2.1951,-2.2004,-2.2028,-2.1988,-2.1992,-2.2142,-2.2145,-2.2147,-2.2161,0,0,0,0,0,0,-2.1712,-2.1727,-2.1747,-2.1786,-2.1801,-2.1875,-2.1856,-2.1861,-2.1884,-2.1883,-2.1923,-2.1928,-2.1941,-2.1997,-2.2008,-2.2033,-2.1995,-2.214,-2.2143,-2.2146,-2.2159,-2.2164,-2.2168,0,0,0,0,0,-2.1707,-2.1749,-2.1748,-2.1761,-2.1827,-2.1877,-2.1885,-2.1899,-2.1886,-2.1907,-2.1928,-2.1927,-2.2024,-2.2002,-2.2015,-2.2042,-2.2139,-2.2143,-2.2146,-2.2157,-2.2163,-2.2168,0,0,0,0,0,0,-2.1712,-2.1754,-2.1754,-2.1809,-2.184,-2.1877,-2.1904,-2.1905,-2.194,-2.1938,-2.1954,-2.1963,-2.2015,-2.2034,-2.2009,-2.2098,-2.208,-2.2086,-2.2084,-2.209,-2.2095,-2.2089,-2.1999,0,0,0,0,0,-2.172,-2.1756,-2.1791,-2.1836,-2.1851,-2.1875,-2.1897,-2.1905,-2.1937,-2.195,-2.1974,-2.2006,-2.2043,-2.2068,-2.2104,-2.2162,-2.2171,-2.2187,-2.2192,-2.2195,-2.22,-2.2233,-2.224,-2.216,-2.216,-2.216,0,0,-2.1736,-2.1763,-2.1785,-2.1838,-2.1862,-2.19,-2.1886,-2.1926,-2.1954,-2.1956,-2.2007,-2.2026,-2.2062,-2.2117,-2.2143,-2.2135,-2.2225,-2.22,-2.2203,-2.2206,-2.2237,-2.2245,-2.2252,-2.2163,-2.2162,-2.2162,0,0,-2.1785,-2.1809,-2.185,-2.1875,-2.1911,-2.1927,-2.1937,-2.1974,-2.1987,-2.2038,-2.2041,-2.2075,-2.2139,-2.2165,-2.2187,-2.2246,-2.2246,-2.2258,-2.2283,-2.2314,-2.232,-2.2326,-2.2347,-2.2355,-2.2263,-2.2263,-2.2263,0,-2.1801,-2.1857,-2.1871,-2.1911,-2.1934,-2.1938,-2.198,-2.2003,-2.205,-2.2067,-2.2057,-2.2138,-2.2163,-2.2224,-2.2239,-2.2256,-2.2269,-2.2253,-2.2318,-2.2324,-2.233,-2.235,-2.2358,-2.2264,-2.2264,-2.2264,-2.2264,0,-2.1874,-2.1913,-2.1942,-2.1987,-2.2013,-2.2054,-2.2075,-2.2101,-2.2107,-2.2124,-2.2177,-2.2206,-2.2249,-2.2265,-2.2271,-2.2327,-2.2321,-2.2315,-2.2296,-2.2338,-2.2358,-2.2366,-2.2266,-2.2265,-2.2265,-2.2265,0,0,-2.1927,-2.198,-2.1991,-2.2011,-2.2053,-2.2083,-2.2125,-2.2166,-2.2188,-2.2221,-2.2256,-2.2311,-2.2306,-2.233,-2.234,-2.2367,-2.2413,-2.2358,-2.2359,-2.2367,-2.2477,-2.2481,-2.249,-2.2414,-2.2415,-2.2416,-2.2474,0,-2.198,-2.2053,-2.2068,-2.2131,-2.2168,-2.2172,-2.2209,-2.2238,-2.2256,-2.229,-2.2309,-2.2348,-2.2337,-2.2352,-2.238,-2.2402,-2.2435,-2.2398,-2.2447,-2.2448,-2.2437,-2.25,-2.2505,-2.2558,-2.2482,-2.2483,-2.2484,0,-2.2051,-2.2086,-2.2153,-2.219,-2.2206,-2.2238,-2.2277,-2.231,-2.2344,-2.2355,-2.2382,-2.2389,-2.2433,-2.2414,-2.2475,-2.2449,-2.247,-2.2484,-2.2486,-2.2491,-2.2468,-2.2506,-2.2575,-2.2583,-2.2496,-2.2495,-2.2494,0,-2.2083,-2.2146,-2.2195,-2.2212,-2.2257,-2.2279,-2.2299,-2.2332,-2.2356,-2.2391,-2.2407,-2.2447,-2.2469,-2.25,-2.2518,-2.2502,-2.2578,-2.2559,-2.2588,-2.2587,-2.2603,-2.2602,-2.2675,-2.2618,-2.2617,-2.2617,-2.2617,0,-2.2141,-2.2181,-2.221,-2.2239,-2.2285,-2.2302,-2.2348,-2.2367,-2.2397,-2.2431,-2.2438,-2.247,-2.2491,-2.2527,-2.2541,-2.259,-2.26,-2.261,-2.2613,-2.2609,-2.2607,-2.2622,-2.2619,-2.2619,-2.2619,-2.2618,-2.2618,0,-2.2184,-2.2204,-2.2257,-2.2295,-2.2306,-2.2338,-2.2371,-2.24,-2.2418,-2.2461,-2.2472,-2.25,-2.2542,-2.2563,-2.2616,-2.2626,-2.268,-2.2681,-2.2668,-2.267,-2.2697,-2.2694,-2.2783,-2.2795,-2.2729,-2.273,-2.273,0,-2.2219,-2.225,-2.2291,-2.2315,-2.2335,-2.2372,-2.2397,-2.2415,-2.2441,-2.2483,-2.2507,-2.2549,-2.2584,-2.2651,-2.2676,-2.2717,-2.2719,-2.2747,-2.2725,-2.272,-2.2719,-2.2717,-2.272,-2.2751,-2.2751,-2.2752,-2.2752,0,-2.2278,-2.2287,-2.2322,-2.2362,-2.2391,-2.2423,-2.2454,-2.2473,-2.2496,-2.2525,-2.2568,-2.2595,-2.2648,-2.269,-2.2733,-2.2754,-2.2757,-2.2759,-2.2768,-2.2764,-2.2755,-2.276,-2.2679,-2.2757,-2.2756,-2.2756,-2.2756,-2.2756,-2.2318,-2.2347,-2.238,-2.242,-2.2445,-2.2475,-2.2504,-2.2526,-2.2562,-2.2606,-2.2615,-2.266,-2.2695,-2.2752,-2.2774,-2.2811,-2.2805,-2.2817,-2.282,-2.2823,-2.2824,-2.275,-2.2819,-2.2818,-2.2818,-2.2818,-2.2818,0,-2.2379,-2.24,-2.2436,-2.248,-2.2511,-2.2512,-2.2547,-2.2573,-2.2613,-2.2644,-2.2678,-2.2728,-2.2769,-2.2798,-2.284,-2.2863,-2.2866,-2.2874,-2.2872,-2.2877,-2.2827,-2.2816,-2.2871,-2.2871,-2.2871,-2.2871,-2.2871,-2.2871,-2.2413,-2.2461,-2.2474,-2.2535,-2.2557,-2.2601,-2.2621,-2.2649,-2.2674,-2.2729,-2.2763,-2.2781,-2.2812,-2.2857,-2.2894,-2.2902,-2.2917,-2.2925,-2.2932,-2.2886,-2.288,-2.2875,-2.2864,-2.2928,-2.2928,-2.2978,-2.2979,-2.2979]},{"header":{"parameterUnit":"m.s-1","parameterCategory":1,"la1":30.2991,"la2":30.254,"lo1":-89.0895,"lo2":-89.0444,"dy":0.0017,"dx":0.0017,"nx":28,"ny":28,"refTime":"2025-04-21T03:00:00:Z","depth":0,"parameterNumber":3,"parameterNumberName":"V-component_of_WINDS"},"data":[0,0,0,0,0,0,0,0,0,0,0,0,0,0,0,0,0,0,0,0,0,0,0,0,0,0,0,0,0,0,0,0,0,0,0,0,0,0,0,0,0,0,0,0,0,0,0,0,0,0,0,0,0,0,0,0,0,0,1.3827,1.3828,0,1.3853,1.3854,1.3854,1.3855,1.3855,1.3855,1.3854,1.388,1.388,1.3881,0,0,0,0,0,0,0,0,0,0,0,0,0,1.3778,1.3778,1.3827,1.3828,1.3828,1.3853,1.3854,1.3854,1.3855,1.3855,1.3855,1.3854,1.3879,1.388,1.3882,0,0,0,0,0,0,0,0,0,0,0,0,0,1.3801,1.3779,1.3827,1.3832,1.3832,1.3853,1.3854,1.3854,1.3855,1.3855,1.3855,1.3854,1.3879,1.388,1.3882,1.3899,0,0,1.3886,1.3887,0,0,0,0,0,0,0,0,1.38,1.3803,1.3831,1.3831,1.3832,1.3851,1.3845,1.3869,1.3856,1.3847,1.3854,1.3854,1.387,1.3872,1.3878,1.3901,1.3902,1.3886,1.3887,1.3888,1.3888,0,0,0,0,0,0,0,1.3798,1.3802,1.3838,1.3831,1.3832,1.3832,1.3835,1.385,1.3861,1.3847,1.3848,1.3851,1.3871,1.3877,1.3879,1.3902,1.3886,1.3887,1.3888,1.3889,1.3941,1.3941,0,0,0,0,0,0,1.3796,1.38,1.3837,1.3838,1.3815,1.3833,1.3836,1.3845,1.386,1.3862,1.3851,1.3851,1.3875,1.3877,1.388,1.3901,1.3888,1.3889,1.389,1.394,1.3941,1.3941,0,0,0,0,0,0,1.3795,1.3799,1.3836,1.3819,1.3824,1.3835,1.3844,1.3846,1.3852,1.3863,1.3865,1.3856,1.3874,1.3878,1.3895,1.3902,1.389,1.3891,1.3939,1.394,1.3941,1.3945,0,0,0,0,0,0,1.3793,1.3798,1.3806,1.382,1.3825,1.3851,1.3845,1.3847,1.3855,1.3855,1.3868,1.387,1.3874,1.3893,1.3896,1.3904,1.3892,1.3939,1.394,1.3941,1.3944,1.3946,1.3947,0,0,0,0,0,1.3791,1.3805,1.3806,1.381,1.3834,1.3851,1.3854,1.3859,1.3855,1.3862,1.387,1.3869,1.3901,1.3894,1.3898,1.3907,1.3938,1.3939,1.3941,1.3944,1.3946,1.3947,0,0,0,0,0,0,1.3791,1.3807,1.3808,1.3827,1.3838,1.3851,1.386,1.3861,1.3873,1.3872,1.3878,1.3881,1.3898,1.3904,1.3896,1.3925,1.3919,1.3921,1.392,1.3922,1.3924,1.3921,1.3893,0,0,0,0,0,1.3793,1.3806,1.3819,1.3835,1.384,1.3849,1.3857,1.386,1.3871,1.3876,1.3884,1.3895,1.3907,1.3915,1.3927,1.3945,1.3948,1.3953,1.3955,1.3956,1.3957,1.3968,1.397,1.3945,1.3945,1.3945,0,0,1.3798,1.3808,1.3816,1.3835,1.3844,1.3857,1.3853,1.3867,1.3876,1.3878,1.3894,1.3901,1.3913,1.3931,1.3939,1.3937,1.3965,1.3958,1.3958,1.3959,1.3969,1.3972,1.3974,1.3946,1.3946,1.3946,0,0,1.3813,1.3822,1.3836,1.3845,1.3859,1.3865,1.3868,1.3882,1.3886,1.3903,1.3905,1.3916,1.3937,1.3946,1.3953,1.3972,1.3972,1.3976,1.3983,1.3993,1.3995,1.3997,1.4004,1.4006,1.3977,1.3977,1.3977,0,1.3817,1.3837,1.3843,1.3857,1.3865,1.3868,1.3882,1.389,1.3907,1.3912,1.3909,1.3936,1.3945,1.3965,1.3969,1.3975,1.3979,1.3974,1.3995,1.3996,1.3998,1.4004,1.4007,1.3978,1.3978,1.3978,1.3978,0,1.384,1.3854,1.3864,1.3881,1.389,1.3904,1.3912,1.3921,1.3924,1.393,1.3947,1.3957,1.3972,1.3977,1.3979,1.3997,1.3995,1.3993,1.3988,1.4001,1.4007,1.4009,1.3978,1.3978,1.3978,1.3978,0,0,1.3855,1.3876,1.3879,1.3887,1.3902,1.3913,1.3927,1.3941,1.3949,1.396,1.3972,1.399,1.3989,1.3997,1.4001,1.4009,1.4024,1.4007,1.4007,1.4009,1.4044,1.4045,1.4048,1.4024,1.4025,1.4025,1.4043,0,1.3872,1.3897,1.3904,1.3925,1.3938,1.3941,1.3953,1.3964,1.397,1.3982,1.3989,1.4001,1.3999,1.4004,1.4013,1.402,1.4031,1.4019,1.4035,1.4035,1.4031,1.4051,1.4052,1.4068,1.4045,1.4046,1.4046,0,1.3894,1.3907,1.3929,1.3944,1.3949,1.396,1.3974,1.3985,1.3997,1.4001,1.4011,1.4014,1.4028,1.4023,1.4042,1.4034,1.4041,1.4046,1.4047,1.4048,1.4041,1.4052,1.4073,1.4076,1.405,1.405,1.4049,0,1.3902,1.3925,1.3942,1.3948,1.3965,1.3973,1.398,1.3992,1.4,1.4012,1.4018,1.4031,1.4039,1.4049,1.4055,1.4051,1.4075,1.407,1.4078,1.4078,1.4083,1.4082,1.4105,1.4088,1.4088,1.4088,1.4088,0,1.3919,1.3933,1.3945,1.3956,1.3971,1.3979,1.3994,1.4001,1.4012,1.4023,1.4027,1.4037,1.4046,1.4057,1.4063,1.4078,1.4081,1.4085,1.4086,1.4084,1.4084,1.4088,1.4087,1.4089,1.4088,1.4088,1.4088,0,1.3931,1.394,1.3958,1.3973,1.3977,1.3988,1.4,1.401,1.4017,1.4032,1.4036,1.4046,1.406,1.4068,1.4085,1.4089,1.4106,1.4107,1.4102,1.4103,1.4111,1.411,1.4137,1.4141,1.4122,1.4122,1.4122,0,1.3941,1.3952,1.3968,1.3976,1.3984,1.3997,1.4006,1.4014,1.4023,1.4038,1.4046,1.406,1.4072,1.4094,1.4103,1.4117,1.4118,1.4126,1.412,1.4118,1.4117,1.4117,1.4118,1.4127,1.4127,1.4128,1.4128,0,1.3958,1.3962,1.3975,1.399,1.4,1.4012,1.4023,1.403,1.4039,1.4049,1.4064,1.4073,1.4092,1.4106,1.412,1.4127,1.4129,1.413,1.4132,1.4131,1.4127,1.4129,1.4105,1.4129,1.4129,1.4129,1.4129,1.4129,1.3969,1.3979,1.3992,1.4006,1.4016,1.4027,1.4037,1.4045,1.4058,1.4074,1.4078,1.4093,1.4105,1.4125,1.4132,1.4144,1.4143,1.4147,1.4148,1.4148,1.4148,1.4126,1.4147,1.4147,1.4147,1.4147,1.4147,0,1.3986,1.3995,1.4008,1.4024,1.4036,1.4037,1.405,1.4059,1.4073,1.4084,1.4096,1.4113,1.4127,1.4138,1.4152,1.4159,1.4161,1.4163,1.4162,1.4164,1.4149,1.4145,1.4162,1.4162,1.4162,1.4162,1.4162,1.4162,1.3996,1.4013,1.4019,1.404,1.4049,1.4064,1.4072,1.4082,1.4091,1.411,1.4122,1.4129,1.414,1.4155,1.4168,1.417,1.4175,1.4177,1.418,1.4166,1.4165,1.4163,1.4159,1.4178,1.4178,1.4193,1.4193,1.4193]}]]